Time,TemperatureF,DewpointF,PressureIn,WindDirection,WindDirectionDegrees,WindSpeedMPH,WindSpeedGustMPH,Humidity,HourlyPrecipIn,Conditions,Clouds,dailyrainin,SolarRadiationWatts/m^2,SoftwareType,DateUTC
2013-06-18 00:00:00,63.0,60.0,-100.00,NE,45,2.0,-999.0,90,-99.99,,,-99.99,0.000000,,2013-06-18 04:00:00,
2013-06-18 00:43:00,63.0,60.0,-100.00,NE,45,2.0,-999.0,90,-99.99,,,-99.99,0.000000,,2013-06-18 04:43:00,
2013-06-18 00:54:00,63.0,60.0,-100.00,NE,45,2.0,-999.0,90,-99.99,,,-99.99,0.000000,,2013-06-18 04:54:00,
2013-06-18 01:00:00,62.0,59.0,-100.00,NE,45,1.0,-999.0,91,-99.99,,,-99.99,0.000000,,2013-06-18 05:00:00,
2013-06-18 01:43:00,62.0,59.0,-100.00,NE,45,1.0,-999.0,91,-99.99,,,-99.99,0.000000,,2013-06-18 05:43:00,
2013-06-18 01:53:00,62.0,59.0,-100.00,NE,45,1.0,-999.0,91,-99.99,,,-99.99,0.000000,,2013-06-18 05:53:00,
2013-06-18 02:00:00,61.0,59.0,-100.00,NE,45,3.0,-999.0,91,-99.99,,,-99.99,0.000000,,2013-06-18 06:00:00,
2013-06-18 02:43:00,61.0,59.0,-100.00,NE,45,3.0,-999.0,91,-99.99,,,-99.99,0.000000,,2013-06-18 06:43:00,
2013-06-18 02:53:00,61.0,59.0,-100.00,NE,45,3.0,-999.0,91,-99.99,,,-99.99,0.000000,,2013-06-18 06:53:00,
2013-06-18 03:00:00,62.0,58.0,-100.00,NNW,337,3.0,-999.0,89,-99.99,,,-99.99,0.000000,,2013-06-18 07:00:00,
2013-06-18 03:43:00,62.0,58.0,-100.00,NNW,337,3.0,-999.0,89,-99.99,,,-99.99,0.000000,,2013-06-18 07:43:00,
2013-06-18 03:53:00,62.0,58.0,-100.00,NNW,337,3.0,-999.0,89,-99.99,,,-99.99,0.000000,,2013-06-18 07:53:00,
2013-06-18 04:00:00,60.0,57.0,-100.00,NNE,22,1.0,-999.0,90,-99.99,,,-99.99,0.000000,,2013-06-18 08:00:00,
2013-06-18 04:43:00,60.0,57.0,-100.00,NNE,22,1.0,-999.0,90,-99.99,,,-99.99,0.000000,,2013-06-18 08:43:00,
2013-06-18 04:52:00,60.0,57.0,-100.00,NNE,22,1.0,-999.0,90,-99.99,,,-99.99,0.000000,,2013-06-18 08:52:00,
2013-06-18 05:00:00,59.0,57.0,-100.00,North,0,1.0,-999.0,92,-99.99,,,-99.99,0.000000,,2013-06-18 09:00:00,
2013-06-18 05:43:00,59.0,57.0,-100.00,North,0,1.0,-999.0,92,-99.99,,,-99.99,0.000000,,2013-06-18 09:43:00,
2013-06-18 05:53:00,59.0,57.0,-100.00,North,0,1.0,-999.0,92,-99.99,,,-99.99,0.000000,,2013-06-18 09:53:00,
2013-06-18 06:00:00,58.0,56.0,-100.00,ENE,67,0.0,-999.0,92,-99.99,,,-99.99,0.000000,,2013-06-18 10:00:00,
2013-06-18 06:43:00,58.0,56.0,-100.00,ENE,67,0.0,-999.0,92,-99.99,,,-99.99,0.000000,,2013-06-18 10:43:00,
2013-06-18 06:53:00,58.0,56.0,-100.00,ENE,67,0.0,-999.0,92,-99.99,,,-99.99,0.000000,,2013-06-18 10:53:00,
2013-06-18 07:00:00,58.0,56.0,-100.00,NE,45,3.0,-999.0,93,-99.99,,,-99.99,12.760000,,2013-06-18 11:00:00,
2013-06-18 07:43:00,58.0,56.0,-100.00,NE,45,3.0,-999.0,93,-99.99,,,-99.99,12.760000,,2013-06-18 11:43:00,
2013-06-18 07:52:00,58.0,56.0,-100.00,NE,45,3.0,-999.0,93,-99.99,,,-99.99,12.760000,,2013-06-18 11:52:00,
2013-06-18 08:00:00,60.0,58.0,-100.00,ENE,67,4.0,-999.0,94,-99.99,,,-99.99,33.639999,,2013-06-18 12:00:00,
2013-06-18 08:43:00,60.0,58.0,-100.00,ENE,67,4.0,-999.0,94,-99.99,,,-99.99,33.639999,,2013-06-18 12:43:00,
2013-06-18 08:52:00,60.0,58.0,-100.00,ENE,67,4.0,-999.0,94,-99.99,,,-99.99,33.639999,,2013-06-18 12:52:00,
2013-06-18 09:00:00,61.0,59.0,-100.00,East,90,4.0,-999.0,92,-99.99,,,-99.99,116.000000,,2013-06-18 13:00:00,
2013-06-18 09:43:00,61.0,59.0,-100.00,East,90,4.0,-999.0,92,-99.99,,,-99.99,116.000000,,2013-06-18 13:43:00,
2013-06-18 09:53:00,61.0,59.0,-100.00,East,90,4.0,-999.0,92,-99.99,,,-99.99,116.000000,,2013-06-18 13:53:00,
2013-06-18 10:00:00,62.0,58.0,-100.00,East,90,5.0,-999.0,87,-99.99,,,-99.99,114.839996,,2013-06-18 14:00:00,
2013-06-18 10:43:00,62.0,58.0,-100.00,East,90,5.0,-999.0,87,-99.99,,,-99.99,114.839996,,2013-06-18 14:43:00,
2013-06-18 10:53:00,62.0,58.0,-100.00,East,90,5.0,-999.0,87,-99.99,,,-99.99,114.839996,,2013-06-18 14:53:00,
2013-06-18 11:00:00,63.0,58.0,-100.00,ESE,112,5.0,-999.0,84,-99.99,,,-99.99,292.320007,,2013-06-18 15:00:00,
2013-06-18 11:43:00,63.0,58.0,-100.00,ESE,112,5.0,-999.0,84,-99.99,,,-99.99,292.320007,,2013-06-18 15:43:00,
2013-06-18 11:53:00,63.0,58.0,-100.00,ESE,112,5.0,-999.0,84,-99.99,,,-99.99,292.320007,,2013-06-18 15:53:00,
2013-06-18 12:00:00,68.0,59.0,-100.00,ESE,112,6.0,-999.0,71,-99.99,,,-99.99,682.080017,,2013-06-18 16:00:00,
2013-06-18 12:43:00,68.0,59.0,-100.00,ESE,112,6.0,-999.0,71,-99.99,,,-99.99,682.080017,,2013-06-18 16:43:00,
2013-06-18 12:53:00,68.0,59.0,-100.00,ESE,112,6.0,-999.0,71,-99.99,,,-99.99,682.080017,,2013-06-18 16:53:00,
2013-06-18 13:00:00,72.0,58.0,-100.00,East,90,5.0,-999.0,61,-99.99,,,-99.99,693.679993,,2013-06-18 17:00:00,
2013-06-18 13:43:00,72.0,58.0,-100.00,East,90,5.0,-999.0,61,-99.99,,,-99.99,693.679993,,2013-06-18 17:43:00,
2013-06-18 13:53:00,72.0,58.0,-100.00,East,90,5.0,-999.0,61,-99.99,,,-99.99,693.679993,,2013-06-18 17:53:00,
2013-06-18 14:00:00,74.0,58.0,-100.00,East,90,5.0,-999.0,56,-99.99,,,-99.99,677.440002,,2013-06-18 18:00:00,
2013-06-18 14:43:00,74.0,58.0,-100.00,East,90,5.0,-999.0,56,-99.99,,,-99.99,677.440002,,2013-06-18 18:43:00,
2013-06-18 14:53:00,74.0,58.0,-100.00,East,90,5.0,-999.0,56,-99.99,,,-99.99,677.440002,,2013-06-18 18:53:00,
2013-06-18 15:00:00,75.0,57.0,-100.00,East,90,4.0,-999.0,54,-99.99,,,-99.99,519.679993,,2013-06-18 19:00:00,
2013-06-18 15:43:00,75.0,57.0,-100.00,East,90,4.0,-999.0,54,-99.99,,,-99.99,519.679993,,2013-06-18 19:43:00,
2013-06-18 15:53:00,75.0,57.0,-100.00,East,90,4.0,-999.0,54,-99.99,,,-99.99,519.679993,,2013-06-18 19:53:00,
2013-06-18 16:00:00,76.0,58.0,-100.00,NE,45,6.0,-999.0,54,-99.99,,,-99.99,602.039978,,2013-06-18 20:00:00,
2013-06-18 16:43:00,76.0,58.0,-100.00,NE,45,6.0,-999.0,54,-99.99,,,-99.99,602.039978,,2013-06-18 20:43:00,
2013-06-18 16:53:00,76.0,58.0,-100.00,NE,45,6.0,-999.0,54,-99.99,,,-99.99,602.039978,,2013-06-18 20:53:00,
2013-06-18 17:43:00,75.0,58.0,-100.00,NNE,22,8.0,-999.0,55,-99.99,,,-99.99,638.000000,,2013-06-18 21:43:00,
2013-06-18 17:52:00,75.0,58.0,-100.00,NNE,22,8.0,-999.0,55,-99.99,,,-99.99,638.000000,,2013-06-18 21:52:00,
2013-06-18 18:00:00,75.0,57.0,-100.00,NNE,22,8.0,-999.0,55,-99.99,,,-99.99,486.040009,,2013-06-18 22:00:00,
2013-06-18 18:43:00,75.0,57.0,-100.00,NNE,22,8.0,-999.0,55,-99.99,,,-99.99,486.040009,,2013-06-18 22:43:00,
2013-06-18 18:53:00,75.0,57.0,-100.00,NNE,22,8.0,-999.0,55,-99.99,,,-99.99,486.040009,,2013-06-18 22:53:00,
2013-06-18 19:00:00,73.0,56.0,-100.00,NNE,22,8.0,-999.0,56,-99.99,,,-99.99,336.399994,,2013-06-18 23:00:00,
2013-06-18 19:48:00,73.0,56.0,-100.00,NNE,22,8.0,-999.0,56,-99.99,,,-99.99,336.399994,,2013-06-18 23:48:00,
2013-06-18 20:00:00,71.0,55.0,-100.00,NNE,22,7.0,-999.0,56,-99.99,,,-99.99,197.199997,,2013-06-19 00:00:00,
2013-06-18 20:33:00,71.0,55.0,-100.00,NNE,22,7.0,-999.0,56,-99.99,,,-99.99,197.199997,,2013-06-19 00:33:00,
2013-06-18 20:43:00,71.0,55.0,-100.00,NNE,22,7.0,-999.0,56,-99.99,,,-99.99,197.199997,,2013-06-19 00:43:00,
2013-06-18 20:53:00,71.0,55.0,-100.00,NNE,22,7.0,-999.0,56,-99.99,,,-99.99,197.199997,,2013-06-19 00:53:00,
2013-06-18 21:00:00,68.0,53.0,-100.00,NNE,22,6.0,-999.0,60,-99.99,,,-99.99,75.400002,,2013-06-19 01:00:00,
2013-06-18 21:43:00,68.0,53.0,-100.00,NNE,22,6.0,-999.0,60,-99.99,,,-99.99,75.400002,,2013-06-19 01:43:00,
2013-06-18 21:53:00,68.0,53.0,-100.00,NNE,22,6.0,-999.0,60,-99.99,,,-99.99,75.400002,,2013-06-19 01:53:00,
2013-06-18 22:00:00,63.0,53.0,-100.00,NE,45,3.0,-999.0,72,-99.99,,,-99.99,4.640000,,2013-06-19 02:00:00,
2013-06-18 22:43:00,63.0,53.0,-100.00,NE,45,3.0,-999.0,72,-99.99,,,-99.99,4.640000,,2013-06-19 02:43:00,
2013-06-18 22:52:00,63.0,53.0,-100.00,NE,45,3.0,-999.0,72,-99.99,,,-99.99,4.640000,,2013-06-19 02:52:00,
2013-06-18 23:00:00,61.0,51.0,-100.00,ENE,67,2.0,-999.0,71,-99.99,,,-99.99,0.000000,,2013-06-19 03:00:00,
2013-06-18 23:43:00,61.0,51.0,-100.00,ENE,67,2.0,-999.0,71,-99.99,,,-99.99,0.000000,,2013-06-19 03:43:00,
2013-06-18 23:52:00,61.0,51.0,-100.00,ENE,67,2.0,-999.0,71,-99.99,,,-99.99,0.000000,,2013-06-19 03:52:00,